Simultaneous Nadir Overpasses (SNOs) Predictions

Prediction of SNOs between LANDSAT-8 and METOP-A Satellite Orbit:

Table of predicted SNOs for the next 14.0 days since TLE Epoch: 8/6/2014
Index Date (LANDSAT-8) Time (LANDSAT-8) Lat,Lon (LANDSAT-8) SZA (LANDSAT-8 ) Date (METOP-A) Time (METOP-A) Lat,Lon (METOP-A) SZA (METOP-A ) Distance(km) Time Diff (sec)
1 08/09/2014 12:46:40 -81.10,-152.07 112.73 08/09/2014 12:46:03 -81.09,-152.22 112.76 2.60 37
2 08/09/2014 13:36:05 81.12, 15.97 67.35 08/09/2014 13:36:41 81.12, 15.92 67.36 1.04 36
3 08/12/2014 08:20:56 -81.10, -85.59 111.88 08/12/2014 08:20:27 -81.10, -85.71 111.91 2.26 29
4 08/12/2014 09:10:21 81.13, 82.44 68.19 08/12/2014 09:11:05 81.12, 82.40 68.20 0.80 44
5 08/15/2014 03:55:11 -81.10, -19.20 111.02 08/15/2014 03:54:50 -81.10, -19.25 111.03 0.82 21
6
